Previsão horária em Alibag

Hoje, 30 Novembro, Segunda-feira

Tempo Temperatura Precipitação Vento Pressão Humidade
00:00 +27°C° 0 mm 2 m/s 760 mmHg 73%
01:00 +27°C° 0 mm 2 m/s 760 mmHg 73%
02:00 +26°C° 0 mm 2 m/s 759 mmHg 73%
03:00 +26°C° 0 mm 2 m/s 759 mmHg 73%
04:00 +26°C° 0 mm 2 m/s 759 mmHg 73%
05:00 +26°C° 0 mm 2 m/s 759 mmHg 73%
06:00 +27°C° 0 mm 2 m/s 759 mmHg 70%
07:00 +28°C° 0 mm 2 m/s 760 mmHg 68%
08:00 +28°C° 0 mm 2 m/s 761 mmHg 65%
09:00 +30°C° 0 mm 2 m/s 761 mmHg 60%
10:00 +33°C° 0 mm 1 m/s 761 mmHg 55%
11:00 +35°C° 0 mm 1 m/s 760 mmHg 50%
12:00 +35°C° 0 mm 2 m/s 760 mmHg 50%
13:00 +35°C° 0 mm 2 m/s 759 mmHg 51%
14:00 +35°C° 0 mm 3 m/s 758 mmHg 52%
15:00 +34°C° 0.2 mm 3 m/s 758 mmHg 58%
16:00 +31°C° 0.2 mm 3 m/s 759 mmHg 64%
17:00 +30°C° 0.2 mm 3 m/s 759 mmHg 70%
18:00 +29°C° 0.2 mm 2 m/s 759 mmHg 72%
19:00 +29°C° 0.2 mm 2 m/s 760 mmHg 74%
20:00 +28°C° 0.2 mm 1 m/s 760 mmHg 76%
21:00 +28°C° 0 mm 1 m/s 760 mmHg 76%
22:00 +28°C° 0 mm 2 m/s 760 mmHg 76%
23:00 +28°C° 0 mm 2 m/s 760 mmHg 76%

Amanhã, 1 Dezembro, Terça-feira

Tempo Temperatura Precipitação Vento Pressão Humidade
00:00 +28°C° 0 mm 2 m/s 760 mmHg 75%
01:00 +28°C° 0 mm 2 m/s 760 mmHg 75%
02:00 +28°C° 0 mm 2 m/s 759 mmHg 74%
03:00 +27°C° 0 mm 2 m/s 759 mmHg 75%
04:00 +27°C° 0 mm 2 m/s 759 mmHg 76%
05:00 +27°C° 0 mm 1 m/s 759 mmHg 76%
06:00 +28°C° 0 mm 1 m/s 759 mmHg 73%
07:00 +29°C° 0 mm 1 m/s 760 mmHg 70%
08:00 +30°C° 0 mm 1 m/s 760 mmHg 67%
09:00 +32°C° 0 mm 1 m/s 760 mmHg 60%
10:00 +33°C° 0 mm 1 m/s 760 mmHg 54%
11:00 +33°C° 0 mm 0 m/s 760 mmHg 47%
12:00 +35°C° 0 mm 1 m/s 760 mmHg 48%
13:00 +36°C° 0 mm 2 m/s 759 mmHg 48%
14:00 +35°C° 0 mm 3 m/s 758 mmHg 49%
15:00 +34°C° 0 mm 3 m/s 758 mmHg 55%
16:00 +33°C° 0 mm 3 m/s 758 mmHg 60%
17:00 +31°C° 0 mm 2 m/s 758 mmHg 65%
18:00 +30°C° 0 mm 2 m/s 758 mmHg 68%
19:00 +29°C° 0 mm 2 m/s 759 mmHg 71%
20:00 +29°C° 0 mm 1 m/s 760 mmHg 74%
21:00 +29°C° 0 mm 1 m/s 760 mmHg 73%
22:00 +29°C° 0 mm 1 m/s 760 mmHg 73%
23:00 +29°C° 0 mm 1 m/s 760 mmHg 73%

Depois de amanhã, 2 Dezembro, Quarta-feira

Tempo Temperatura Precipitação Vento Pressão Humidade
00:00 +28°C° 0 mm 1 m/s 759 mmHg 74%
01:00 +28°C° 0 mm 1 m/s 759 mmHg 75%
02:00 +27°C° 0 mm 1 m/s 759 mmHg 76%
03:00 +27°C° 0 mm 1 m/s 759 mmHg 76%
04:00 +27°C° 0 mm 1 m/s 759 mmHg 77%
05:00 +26°C° 0 mm 1 m/s 759 mmHg 78%
06:00 +27°C° 0 mm 1 m/s 759 mmHg 74%
07:00 +28°C° 0 mm 1 m/s 760 mmHg 70%
08:00 +29°C° 0 mm 1 m/s 760 mmHg 66%
09:00 +31°C° 0 mm 1 m/s 760 mmHg 58%
10:00 +34°C° 0 mm 2 m/s 760 mmHg 51%
11:00 +36°C° 0 mm 2 m/s 760 mmHg 44%
12:00 +35°C° 0 mm 2 m/s 759 mmHg 45%
13:00 +35°C° 0 mm 3 m/s 758 mmHg 45%
14:00 +35°C° 0 mm 3 m/s 757 mmHg 46%
15:00 +34°C° 0 mm 3 m/s 757 mmHg 52%
16:00 +31°C° 0 mm 3 m/s 757 mmHg 59%
17:00 +30°C° 0 mm 3 m/s 757 mmHg 66%
18:00 +29°C° 0 mm 2 m/s 758 mmHg 70%
19:00 +28°C° 0 mm 1 m/s 758 mmHg 74%
20:00 +27°C° 0 mm 1 m/s 759 mmHg 78%
21:00 +27°C° 0 mm 1 m/s 759 mmHg 78%
22:00 +27°C° 0 mm 1 m/s 759 mmHg 78%
23:00 +25°C° 0 mm 0 m/s 759 mmHg 78%

3 Dezembro, Quinta-feira

Tempo Temperatura Precipitação Vento Pressão Humidade
00:00 +26°C° 0 mm 1 m/s 759 mmHg 77%
01:00 +26°C° 0 mm 1 m/s 758 mmHg 76%
02:00 +26°C° 0 mm 1 m/s 758 mmHg 76%
03:00 +25°C° 0 mm 1 m/s 758 mmHg 76%
04:00 +25°C° 0 mm 2 m/s 758 mmHg 75%
05:00 +25°C° 0 mm 2 m/s 758 mmHg 75%
06:00 +26°C° 0 mm 2 m/s 758 mmHg 69%
07:00 +26°C° 0 mm 2 m/s 759 mmHg 63%
08:00 +27°C° 0 mm 2 m/s 760 mmHg 57%
09:00 +30°C° 0 mm 1 m/s 759 mmHg 50%
10:00 +32°C° 0 mm 1 m/s 759 mmHg 42%
11:00 +34°C° 0 mm 1 m/s 759 mmHg 35%
12:00 +34°C° 0 mm 1 m/s 759 mmHg 34%
13:00 +36°C° 0 mm 2 m/s 758 mmHg 33%
14:00 +36°C° 0 mm 2 m/s 757 mmHg 31%
15:00 +34°C° 0 mm 2 m/s 757 mmHg 40%
16:00 +31°C° 0 mm 2 m/s 757 mmHg 49%
17:00 +29°C° 0 mm 2 m/s 757 mmHg 58%
18:00 +28°C° 0 mm 2 m/s 758 mmHg 62%
19:00 +27°C° 0 mm 1 m/s 758 mmHg 66%
20:00 +26°C° 0 mm 1 m/s 758 mmHg 69%
21:00 +26°C° 0 mm 1 m/s 758 mmHg 69%
22:00 +26°C° 0 mm 1 m/s 758 mmHg 68%
23:00 +25°C° 0 mm 1 m/s 758 mmHg 68%

4 Dezembro, Sexta-feira

Tempo Temperatura Precipitação Vento Pressão Humidade
00:00 +25°C° 0 mm 1 m/s 758 mmHg 67%
01:00 +25°C° 0 mm 1 m/s 757 mmHg 66%
02:00 +25°C° 0 mm 1 m/s 757 mmHg 65%
03:00 +24°C° 0 mm 1 m/s 757 mmHg 64%
04:00 +24°C° 0 mm 2 m/s 757 mmHg 63%
05:00 +24°C° 0 mm 2 m/s 757 mmHg 62%
06:00 +25°C° 0 mm 2 m/s 758 mmHg 58%
07:00 +26°C° 0 mm 2 m/s 758 mmHg 53%
08:00 +27°C° 0 mm 2 m/s 759 mmHg 49%
09:00 +29°C° 0 mm 2 m/s 759 mmHg 43%
10:00 +31°C° 0 mm 1 m/s 759 mmHg 38%
11:00 +34°C° 0 mm 1 m/s 759 mmHg 32%
12:00 +34°C° 0 mm 1 m/s 758 mmHg 32%
13:00 +36°C° 0 mm 2 m/s 757 mmHg 31%
14:00 +36°C° 0 mm 2 m/s 756 mmHg 30%
15:00 +34°C° 0 mm 2 m/s 757 mmHg 37%
16:00 +31°C° 0 mm 2 m/s 757 mmHg 45%
17:00 +29°C° 0 mm 2 m/s 757 mmHg 52%
18:00 +28°C° 0 mm 2 m/s 757 mmHg 55%
19:00 +27°C° 0 mm 2 m/s 758 mmHg 57%
20:00 +26°C° 0 mm 1 m/s 758 mmHg 60%
21:00 +26°C° 0 mm 1 m/s 758 mmHg 60%
22:00 +25°C° 0 mm 2 m/s 758 mmHg 59%
23:00 +25°C° 0 mm 2 m/s 758 mmHg 59%

5 Dezembro, Sábado

Tempo Temperatura Precipitação Vento Pressão Humidade
00:00 +25°C° 0 mm 2 m/s 758 mmHg 57%
01:00 +25°C° 0 mm 2 m/s 757 mmHg 56%
02:00 +24°C° 0 mm 2 m/s 757 mmHg 54%
03:00 +24°C° 0 mm 2 m/s 757 mmHg 52%
04:00 +24°C° 0 mm 2 m/s 757 mmHg 50%
05:00 +24°C° 0 mm 3 m/s 757 mmHg 47%
06:00 +25°C° 0 mm 3 m/s 758 mmHg 46%
07:00 +25°C° 0 mm 3 m/s 758 mmHg 45%
08:00 +26°C° 0 mm 3 m/s 759 mmHg 44%
09:00 +29°C° 0 mm 3 m/s 759 mmHg 40%
10:00 +31°C° 0 mm 2 m/s 759 mmHg 37%
11:00 +35°C° 0 mm 2 m/s 758 mmHg 33%
12:00 +36°C° 0 mm 2 m/s 758 mmHg 32%
13:00 +36°C° 0 mm 2 m/s 757 mmHg 31%
14:00 +37°C° 0 mm 2 m/s 756 mmHg 30%
15:00 +35°C° 0 mm 2 m/s 756 mmHg 36%
16:00 +32°C° 0 mm 2 m/s 756 mmHg 43%
17:00 +30°C° 0 mm 2 m/s 756 mmHg 49%
18:00 +29°C° 0 mm 2 m/s 756 mmHg 52%
19:00 +27°C° 0 mm 2 m/s 757 mmHg 55%
20:00 +26°C° 0 mm 1 m/s 757 mmHg 58%
21:00 +26°C° 0 mm 2 m/s 758 mmHg 58%
22:00 +26°C° 0 mm 2 m/s 758 mmHg 59%
23:00 +26°C° 0 mm 2 m/s 758 mmHg 59%
Mostrar mais